Powrót do katalogu

STARLINK-5493

AktywnyŁącznośćVLEO
NORAD 55333·PAYLOAD·🇺🇸 United States

Wystrzelony Jan 26, 2023 z Cape Canaveral Space Force Station

Loading…

Następne Przeloty (najbliższe 24 godziny)

TLE

ŚwieżeSource: CelesTrak SupGP

Epoka: Sep 14, 2026, 22:02 UTC

1 55333C 23013C   26257.91854167 -.00037226  00000+0 -13485-2 0  2572
2 55333  43.0022 314.9355 0001243 266.9362  10.8217 15.27593197    15

Śledź STARLINK-5493 w czasie rzeczywistym z AllMySat

Download on the App Store